AGROMETEOROLOŠKI PORTAL

vinorodna pokrajina

Temelj dobrega kmetovanja

Pregled podatkov za lokacijo Selo, meteorološka postaja 516319

Pregled senzorjev na lokaciji

ID Ime Zadnja
vrednost
Datum in čas
meritve
(lokalni čas)
Tip
senzorja
7049 Omočenost lista (1,5 m) (U) 0 U 29.1.2023 07:00 A730WET
7048 Padavine (mm) 0 mm 29.1.2023 07:00 Generic 0.2 mm
7051 Relativna zračna vlaga (2 m) (%RH) 83 %RH 29.1.2023 07:00 50YA
7050 Temperatura (2 m) (°C) -0,9 °C 29.1.2023 07:00 50YA

Pregled podatkov zadnjih 24 ur

Zap.
št.
Datum in čas
(lokalni čas)
Selo
Omočenost
lista
(1,5
m)
Padavine Relativna
zračna
vlaga
(2
m)
Temperatura
(2
m)
1 29.1.2023 07:00 0 0 82,8 -0,9
2 29.1.2023 06:30 0 0 82,2 -0,8
3 29.1.2023 06:00 0 0 81,9 -0,7
4 29.1.2023 05:30 0 0 81,8 -0,6
5 29.1.2023 05:00 0 0 82,9 -0,5
6 29.1.2023 04:30 0 0 82,7 -0,4
7 29.1.2023 04:00 0 0 82 -0,2
8 29.1.2023 03:30 0 0 82,7 -0,2
9 29.1.2023 03:00 0 0 83,4 -0,2
10 29.1.2023 02:30 0 0 83,8 -0,1
11 29.1.2023 02:00 0 0 84,1 -0,1
12 29.1.2023 01:30 0 0 84 0
13 29.1.2023 01:00 0 0 83,7 0,1
14 29.1.2023 00:30 0 0 84,5 0,1
15 29.1.2023 00:00 0 0 84,8 0,1
16 28.1.2023 23:30 0 0 85,7 0
17 28.1.2023 23:00 0 0 86,4 -0,1
18 28.1.2023 22:30 1 0 87,2 -0,2
19 28.1.2023 22:00 1 0 87,6 -0,4
20 28.1.2023 21:30 1 0 87,4 -0,4
21 28.1.2023 21:00 0 0 86,1 -0,3
22 28.1.2023 20:30 0 0 85,9 -0,4
23 28.1.2023 20:00 0 0 85,4 -0,4
24 28.1.2023 19:30 0 0 85,2 -0,5
25 28.1.2023 19:00 0 0 85 -0,5
26 28.1.2023 18:30 1 0 86,3 -0,6
27 28.1.2023 18:00 0 0 86,6 -0,6
28 28.1.2023 17:30 1 0 86,7 -0,6
29 28.1.2023 17:00 0 0 87 -0,6
30 28.1.2023 16:30 1 0 88,2 -0,5
31 28.1.2023 16:00 1 0 87 -0,4
32 28.1.2023 15:30 0 0 84,7 -0,4
33 28.1.2023 15:00 0 0 84 -0,3
34 28.1.2023 14:30 0 0 84,1 -0,4
35 28.1.2023 14:00 0 0 84,1 -0,4
36 28.1.2023 13:30 0 0 83,8 -0,3
37 28.1.2023 13:00 1 0 82,1 -0,1
38 28.1.2023 12:30 0 0 80,9 -0,2
39 28.1.2023 12:00 0 0 79,5 0,2
40 28.1.2023 11:30 0 0 77,6 0,4
41 28.1.2023 11:00 0 0 77,1 0,3
42 28.1.2023 10:30 0 0 77,3 -0,1
43 28.1.2023 10:00 0 0 80,4 -0,6
44 28.1.2023 09:30 0 0 83,5 -1
45 28.1.2023 09:00 0 0 80,9 -1
46 28.1.2023 08:30 0 0 79,9 -1
47 28.1.2023 08:00 1 0 78,2 -1
48 28.1.2023 07:30 1 0 77,6 -1